sat.trackr.live / text

‹ back to catalog

STARLINK-30531

NORAD 57998 · 2023-153H

PAYLOAD ACTIVE UNKNOWN

§ Identity

Operator
Country
US
Launch date
2023-10-05
Launch site
AFETR
Launch vehicle
Mass (kg)
RCS (m²)

Purposes: comms

External: N2YO · Heavens-Above · Gunter

§ Orbital elements

Epoch: 2026-09-19T17:30:47.202336Z

Period
94.27 min
Inclination
43.0046°
Eccentricity
0.0001090
Mean motion
15.27552412 rev/d
Perigee alt
482.4 km
Apogee alt
483.9 km
Semi-major
6,861.3 km
B*
8.0072e-5
RAAN
51.1042°
Arg perigee
260.5009°
Mean anomaly
99.5720°
Rev number
16,457

§ Raw data

STARLINK-305311 57998U 23153H   26262.72971299  .00001940  00000+0  80072-4 0  99902 57998  43.0046  51.1042 0001090 260.5009  99.5720 15.27552412164571

JSON: /api/v1/satellites/57998 · /tle

For live sub-satellite position, see the globe view (requires WebGL).

§ Visibility from observer

Set your observer location to see the next 7 days of passes ≥ 10°. The values pass through the URL so the page stays shareable.

No JS? Fill the form by hand. The geolocation button needs JavaScript.